Find Starlink 34612

NORAD ID: 64773 Int'l Des: 2025-147 Owner: SPXS Country: US Constellation: starlink operational
LEOCIRCULAR

当前视图

正在加载3D地球...

About Starlink 34612

Starlink 34612 (NORAD 64773) is a starlink constellation satellite (v2 mini) launched Jul 8, 2025 by SPXS of US. It operates in LEO, CIRCULAR orbit with a mass of 575.00 kg.

即将过境

Passes for default location (London). Set your location on the main map for personalized predictions.

高度历史

Loading altitude history...

两行轨道根数

1 64773U 25147U 26263.39516317 .00016567 00000-0 50014-3 0 9998
2 64773 53.1562 53.9957 0002068 83.1822 276.9415 15.34414120 68620
Epoch: Sep 20, 2026 • Age: 10 hours

当前状态

高度 466.6 km
远地点 / 近地点 N/A
速度 7.63 km/s
星下点 -13.01°S, 53.51°W
发射日期 Jul 8, 2025
运行时间 1.2 years
类型 internet

技术详情

分类 Payload
质量 575.00 kg
干质量 530.00 kg
长度 0.30 m
跨度 29.00 m
形状 ? Box + pan
制造商 SPXS
平台类型 Starlink V2MO
阶段状态 In Orbit
所有者/国家 SPXS/US

Most Searched